Hourly Data Report for October 30, 2014

All times are specified in Local Standard Time (LST). Add 1 hour to adjust for Daylight Saving Time where and when it is observed.

OTTAWA INTL A
ONTARIO

45°19'00.000" N
75°40'00.000" W
114.90 m
6106001
71628
YOW

Download Data

Hourly Data (October 2014)
Hourly Data Report for October 30, 2014
Temp Definition
°C
Dew Point Temp Definition
°C
Rel Hum Definition
%
Wind Dir Definition
10's deg

Wind Spd Definition
km/h
Visibility Definition
km
Stn Press Definition
kPa
Hmdx Definition


Wind Chill Definition


Weather Definition


TIME
00:00 Legend Double Dagger 7.0 4.0 81 27 11 24.1 99.78     LegendNANA
01:00 Legend Double Dagger 6.7 3.7 81 30 17 24.1 99.83     Mostly Cloudy
02:00 Legend Double Dagger 5.6 1.0 72 32 22 24.1 99.92     LegendNANA
03:00 Legend Double Dagger 4.1 0.6 78 32 12 24.1 99.97     LegendNANA
04:00 Legend Double Dagger 2.9 0.5 84 30 13 24.1 100.01     Mainly Clear
05:00 Legend Double Dagger 2.7 0.3 84 29 12 24.1 100.09     LegendNANA
06:00 Legend Double Dagger 1.0 -0.8 88 26 8 24.1 100.13     LegendNANA
07:00 Legend Double Dagger 1.0 0.0 93 26 10 24.1 100.17     Clear
08:00 Legend Double Dagger 3.5 1.4 86 29 12 24.1 100.24     LegendNANA
09:00 Legend Double Dagger 4.9 1.2 77 33 16 24.1 100.29     LegendNANA
10:00 Legend Double Dagger 5.9 0.5 68 31 13 24.1 100.29     Mainly Clear
11:00 Legend Double Dagger 7.3 0.3 61 29 16 24.1 100.29     LegendNANA
12:00 Legend Double Dagger 5.8 -0.9 62 28 20 24.1 100.27     LegendNANA
13:00 Legend Double Dagger 6.0 -1.6 58 29 14 24.1 100.26     Mostly Cloudy
14:00 Legend Double Dagger 6.0 -1.4 59 25 27 24.1 100.25     LegendNANA
15:00 Legend Double Dagger 4.7 -2.0 62 25 15 24.1 100.26     LegendNANA
16:00 Legend Double Dagger 5.4 -1.3 62 29 12 24.1 100.27     Mostly Cloudy
17:00 Legend Double Dagger 4.7 -0.5 69 25 9 24.1 100.30     LegendNANA
18:00 Legend Double Dagger 4.6 -1.4 65 29 13 24.1 100.36     LegendNANA
19:00 Legend Double Dagger 3.4 -2.4 66 29 10 24.1 100.36     Cloudy
20:00 Legend Double Dagger 3.1 -2.6 66 33 14 24.1 100.36     LegendNANA
21:00 Legend Double Dagger 2.3 -3.4 66 36 8 24.1 100.37     LegendNANA
22:00 Legend Double Dagger 1.0 -3.9 70 34 7 24.1 100.35     Mostly Cloudy
23:00 Legend Double Dagger 0.1 -4.2 73 32 7 24.1 100.33     LegendNANA

Notes on Data Quality.

Legend

  • E = Estimated
  • M = Missing
  • NA = Not Available
  • ‡ = Partner data that is not subject to review by the National Climate Archives
Date modified: